This demonstration page uses our WeatherBlox Daily Observations layout. Learn more.

36.17497, -115.13722

Hourly Observations for February 9, 2015

Temp ( °F °C ) Dew Point ( °F °C ) Humidity (%) Winds ( mph kmh ) Pressure ( in mb ) Visibility ( mi km ) Precip ( " mm )
12:53 am 00:53 Clear 57 13.9 41 5 55 55 VRB 5 7 30.1 1019 10 16.0934 0 0
1:53 am 01:53 Clear 56 13.3 40 4.4 55 55 Calm 30.09 1019 10 16.0934 0 0
2:53 am 02:53 Clear 58 14.4 40 4.4 51 51 ENE 3 6 30.07 1018 10 16.0934 0 0
3:53 am 03:53 Clear 54 12.2 40 4.4 59 59 NW 5 7 30.07 1018 10 16.0934 0 0
4:53 am 04:53 Clear 54 12.2 40 4.4 59 59 NW 6 9 30.09 1019 10 16.0934 0 0
5:53 am 05:53 Clear 55 12.8 41 5 59 59 Calm 30.09 1019 10 16.0934 0 0
6:53 am 06:53 Sunny 54 12.2 41 5 62 62 N 5 7 30.1 1019 10 16.0934 0 0
7:53 am 07:53 Sunny 61 16.1 43 6.1 52 52 SSE 14 22 30.09 1019 10 16.0934 0 0
8:53 am 08:53 Sunny 68 20 42 5.6 39 39 SSE 15 24 30.08 1019 10 16.0934 0 0
9:53 am 09:53 Sunny 72 22.2 37 2.8 28 28 S 16 26 30.07 1018 10 16.0934 0 0
10:53 am 10:53 Sunny 75 23.9 35 1.7 23 23 SSW 16 26 30.04 1017 10 16.0934 0 0
11:53 am 11:53 Sunny 77 25 28 -2.2 16 16 SSW 18 30 30.02 1017 10 16.0934 0 0
12:53 pm 12:53 Sunny 79 26.1 22 -5.6 12 12 SSW 16 26 29.98 1015 10 16.0934 0 0
1:53 pm 13:53 Sunny 78 25.6 24 -4.4 13 13 SSW 13 20 29.97 1015 10 16.0934 0 0
2:53 pm 14:53 Sunny 77 25 27 -2.8 16 16 S 17 28 29.95 1014 10 16.0934 0 0
3:53 pm 15:53 Sunny 76 24.4 29 -1.7 18 18 S 17 28 29.95 1014 10 16.0934 0 0
4:53 pm 16:53 Sunny 74 23.3 30 -1.1 20 20 SSW 18 30 29.94 1014 10 16.0934 0 0
5:53 pm 17:53 Clear 71 21.7 31 -0.6 23 23 S 9 15 29.96 1014 10 16.0934 0 0
6:53 pm 18:53 Clear 66 18.9 33 0.6 29 29 S 9 15 29.97 1015 10 16.0934 0 0
7:53 pm 19:53 Clear 65 18.3 33 0.6 31 31 E 3 6 29.98 1015 10 16.0934 0 0
8:53 pm 20:53 Clear 64 17.8 33 0.6 32 32 N 10 17 29.99 1016 10 16.0934 0 0
9:53 pm 21:53 Clear 61 16.1 33 0.6 35 35 NNW 8 13 29.99 1016 10 16.0934 0 0
10:53 pm 22:53 Clear 60 15.6 33 0.6 36 36 NNW 6 9 30 1016 10 16.0934 0 0
11:53 pm 23:53 Clear 60 15.6 33 0.6 36 36 N 9 15 29.99 1016 10 16.0934 0 0

Powered by AerisWeather